COSMOS 1275 DEB, 17615

Orbit data source: Space-Track

COSMOS 1275 DEB, 17615 is space debris in LEO originally from a launch on Thu, 04 Jun 1981 UTC launched from the Plesetsk Missile And Space Complex (PKMTR). Debris objects in space refer to the collection of defunct objects orbiting the Earth. Examples of debris include non-operational satellites, rocket bodies, and fragments generated from explosions, collisions, or faulty payload assembly.

Loading next visibility...
Identifier
17615, 1981-053KJ
Orbit
LEO
Country
Flag of CISCIS
Related business
Manufacturer
Unknown
Mission
Spacecraft
Bus & Motor
Unknown
Mass
Unknown
Launch date (UTC)
1981-06-04 (44 years ago)
Launch vehicle
Unknown
Launch site
Plesetsk Missile And Space Complex (PKMTR)
Object type
Payload
Rocket body
Debris
Shape & HBR
Unknown shape, 0.1 m
Radar Cross Section
Small (<0.1 m²)

Expand to show TLE details & history
Last TLE update: 1 day ago

TLE from 1 day ago
0 COSMOS 1275 DEB
1 17615U 81053KJ  25288.32334519  .00003171  00000-0  15903-2 0  9994
2 17615  82.8528 305.4382 0039508  23.0514 347.9022 14.15936434 58527
Epoch: 2025-10-15T07:45Z
TLE epoch observation values (Epoch: 2025-10-15T07:45:37.024Z)
Latitude
10.72206°
Longitude
166.28816°
Altitude
813.448 km
Speed
7.462 km/s
True Right ascension
20h 27m 09s
True Declination
10° 39' 35"
Sunlit
Object was in daylight at epoch
Visualization orbit readout
Latitude
Unknown
Longitude
Unknown
Altitude
Unknown
Speed
Unknown
Apparent Right ascension
Unknown
Apparent Declination
Unknown
Sunlit
N/A
Visualization observer readout
Local Sidereal Time
12:32:24
Azimuth
Unknown
Elevation
Unknown
Doppler factor
Unknown
Orbital elements
Apogee altitude
864.727 km
Perigee altitude
807.722 km
Semi-major axis
7,214.361 km
Eccentricity
0.00395
Inclination
82.8528°
RAAN
305.4382°
Arg. of periapsis
23.0514°
True anomaly
347.80686°
Mean anomaly
347.9022°
Eccentric anomaly
347.85457°
Mean motion
3.54198 °/min
Orbital period
101.64 mins
BSTAR
0.0015903
Loading maneuver chart data...
Computing Atmospheric mass density...

Documentation

Showing up to 5 results
|